Home > Weather > Haarlem > Past weeks

Flag for Netherlands Weather for the Past 2 Weeks in Haarlem, Netherlands

Now
39 °F

Clear.


Feels Like: 34 °F
Forecast: 43 / 50 °F
Wind: 7 mph from South

Location: Amsterdam Schiphol Airport

Current Time: Apr 28, 2016 at 10:52:06 PM

Latest Report: Apr 28, 2016 at 10:25 PM


Visibility: 10 mi

Pressure: 29.92 "Hg

Humidity: 70%

Dew Point: 30 °F

Location of HaarlemLocation

Historic Weather in Haarlem — Graph

°F

Haarlem Temperature Yesterday

Maximum temperature yesterday: 48 °F (at 12:55 PM)
Minimum temperature yesterday: 37 °F (at 6:55 AM)
Average temperature yesterday: 43 °F

High & Low Weather Summary for the Past Weeks

 TemperatureHumidityPressure
High61 °F (Apr 14, 2:25 PM)100% (Apr 14, 2:55 AM)30.48 "Hg (Apr 14, 2:55 AM)
Low34 °F (Apr 25, 3:25 AM)41% (Apr 21, 4:55 PM)29.36 "Hg (Apr 16, 3:25 AM)
Average46 °F75%29.92 "Hg
* Reported Apr 13 9:25 PM — Apr 28 9:55 PM, Haarlem, Weather by CustomWeather, © 2016

Note: Actual official high and low records may vary slightly from our data, if they occured in-between our weather recording intervals... More about our weather records

Advertising

Haarlem Weather History for the Previous 24 Hours

Scroll right to see more
 ConditionsComfort  
Time TempWeatherWind HumidityBarometerVisibility
9:55 PM
Thu, Apr 28
41 °FSunny.8 mph66%29.92 "Hg10 mi
9:25 PM41 °FPassing clouds.8 mph66%29.92 "HgN/A
8:55 PM41 °FSunny.8 mph66%29.92 "Hg10 mi
8:25 PM43 °FPassing clouds.8 mph66%29.92 "HgN/A
7:55 PM45 °FPassing clouds.10 mph61%29.95 "HgN/A
7:25 PM45 °FPassing clouds.12 mph57%29.95 "HgN/A
6:55 PM46 °FPassing clouds.10 mph53%29.95 "HgN/A
6:25 PM48 °FPassing clouds.12 mph58%29.95 "HgN/A
5:55 PM45 °FPassing clouds.13 mph61%29.95 "HgN/A
5:25 PM45 °FPassing clouds.13 mph71%29.95 "HgN/A
4:55 PM46 °FPassing clouds.14 mph66%29.95 "HgN/A
4:25 PM46 °FPassing clouds.15 mph62%29.95 "HgN/A
3:55 PM46 °FPassing clouds.14 mph71%29.95 "HgN/A
3:25 PM45 °FScattered clouds.14 mph76%29.95 "HgN/A
2:55 PM46 °FBroken clouds.16 mph76%29.95 "HgN/A
2:25 PM45 °FScattered clouds.13 mph81%29.92 "HgN/A
1:55 PM45 °FPassing clouds.6 mph81%29.92 "HgN/A
1:25 PM39 °FSprinkles. Scattered clouds.15 mph93%29.95 "Hg5 mi
12:55 PM43 °FThunderstorms. Scattered clouds.18 mph81%29.92 "HgN/A
12:25 PM46 °FPassing clouds.9 mph66%29.92 "HgN/A
11:55 AM46 °FScattered showers. Passing clouds.12 mph71%29.95 "HgN/A
11:25 AM46 °FScattered showers. Scattered clouds.9 mph71%29.92 "HgN/A
10:55 AM43 °FScattered showers. Partly sunny.6 mph81%29.95 "HgN/A
9:55 AM39 °FSprinkles. Broken clouds.16 mph87%29.92 "HgN/A
9:25 AM46 °FScattered showers. Scattered clouds.7 mph76%29.92 "HgN/A
7:55 AM39 °FPassing clouds.5 mph93%29.92 "HgN/A
6:55 AM34 °FPassing clouds.7 mph93%29.89 "HgN/A
5:55 AM34 °FPassing clouds.5 mph93%29.89 "HgN/A
5:25 AM34 °FPassing clouds.6 mph100%29.89 "HgN/A
4:55 AM36 °FPassing clouds.3 mph93%29.89 "HgN/A
3:55 AM37 °FPassing clouds.7 mph93%29.89 "HgN/A
2:55 AM39 °FSprinkles. Passing clouds.6 mph87%29.89 "HgN/A
12:55 AM37 °FPassing clouds.6 mph87%29.86 "HgN/A
12:25 AM39 °FSprinkles. Passing clouds.2 mph81%29.86 "HgN/A
11:55 PM
Wed, Apr 27
39 °FPassing clouds.1 mph87%29.86 "HgN/A
10:55 PM41 °FScattered showers. Passing clouds.9 mph81%29.86 "HgN/A
10:25 PM41 °FSprinkles. Passing clouds.6 mph81%29.86 "HgN/A
Weather by CustomWeather, © 2016

See weather overviewHow to use our weather pages